Observations for Trim Patrick St
| Time | AQI | Temp °C | Hum % | Pres Pa | CO μg/m³ | H₂S μg/m³ | NO μg/m³ | NO₂ μg/m³ | O₃ μg/m³ | SO₂ μg/m³ | PM1 μg/m³ | PM2.5 μg/m³ | PM10 μg/m³ |
|---|---|---|---|---|---|---|---|---|---|---|---|---|---|
| Monday 3 August 2026 | |||||||||||||
| 14:22 | 3 | 29.9 | 36 | 69,208 | 0 | 0 | 1.41 | 21.23 | 120.82 | 9.47 | 6.29 | 12.86 | 14.15 |
| 14:21 | 3 | 29.9 | 38 | 69,191 | 0 | 9.96 | 1.4 | 28.02 | 147.46 | 11.3 | 6.29 | 12.71 | 13.98 |
| 14:20 | 3 | 29.8 | 38 | 69,171 | 0 | 6.35 | 1.4 | 27.82 | 154.58 | 9.58 | 4.57 | 11.08 | 12.19 |
| 14:19 | 3 | 29.8 | 37 | 69,201 | 0 | 5.97 | 1.36 | 25.09 | 118.44 | 10.67 | 4.57 | 10.38 | 11.41 |
| 14:18 | 3 | 29.8 | 37 | 69,212 | 0 | 2.87 | 1.35 | 25.96 | 108.8 | 9.91 | 6.29 | 12.75 | 14.03 |
| 14:17 | 3 | 29.7 | 38 | 69,201 | 0 | 1.91 | 1.33 | 22.74 | 110.14 | 9.73 | 5.43 | 11.92 | 13.11 |
| 14:16 | 3 | 29.7 | 38 | 69,210 | 0 | 7.4 | 1.33 | 24.3 | 148.18 | 10.89 | 4.57 | 11.15 | 12.27 |
| 14:15 | 3 | 29.7 | 37 | 69,193 | 0 | 5.45 | 1.4 | 24.92 | 173.29 | 10.59 | 5.43 | 11.97 | 13.17 |
| 14:14 | 3 | 29.7 | 36 | 69,199 | 0 | 4.13 | 1.43 | 24.07 | 107.06 | 10.34 | 5.43 | 11.25 | 12.37 |
| 14:13 | 3 | 29.7 | 37 | 69,181 | 0 | 6.44 | 1.46 | 23.87 | 148.54 | 10.87 | 5.43 | 12.74 | 14.01 |
| 14:12 | 3 | 29.6 | 38 | 69,191 | 0 | 3.05 | 1.48 | 22.09 | 92.52 | 9.12 | 4.57 | 10.32 | 11.35 |
| 14:11 | 3 | 29.6 | 38 | 69,201 | 0 | 21.39 | 1.38 | 38.05 | 211.09 | 12.45 | 5.43 | 11.13 | 12.24 |
| 14:10 | 3 | 29.6 | 38 | 69,189 | 0 | 11.72 | 1.35 | 31.45 | 148.75 | 11.47 | 5.43 | 11.12 | 12.23 |
| 14:09 | 3 | 29.6 | 38 | 69,197 | 0 | 4.09 | 1.32 | 22.89 | 108.13 | 10.01 | 5.43 | 11.88 | 13.07 |
| 14:08 | 3 | 29.6 | 38 | 69,210 | 0 | 13.2 | 1.26 | 24.26 | 117.13 | 11.89 | 3.71 | 10.29 | 11.32 |
| 14:07 | 3 | 29.5 | 37 | 69,202 | 0 | 11.6 | 1.28 | 35.13 | 207.21 | 10.91 | 4.57 | 11.17 | 12.29 |
| 14:06 | 3 | 29.5 | 37 | 69,185 | 0 | 7.71 | 1.37 | 24.4 | 105.97 | 10.65 | 5.43 | 11.2 | 12.32 |
| 14:04 | 3 | 29.5 | 37 | 69,161 | 0 | 12.61 | 1.35 | 32.04 | 171.7 | 11.26 | 6.29 | 11.98 | 13.18 |
| 14:03 | 3 | 29.5 | 38 | 69,161 | 0 | 15.51 | 1.38 | 29.09 | 128.99 | 11.06 | 5.43 | 11.13 | 12.24 |
| 14:02 | 3 | 29.5 | 37 | 69,159 | 0 | 16.58 | 1.35 | 32.07 | 191.29 | 12.32 | 3.71 | 10.4 | 11.44 |